RH
81 84 76 56 77 85 84 66 59 85 89 77 71 59 49 44 42 83 78 82 76 37 40 41 42 43 43 43 41 43 44 44 44
83 82 83 71 59 75 77 76 58 54 62 70 67 62 52 46 82 86 86 66 41 35 39 45 47 46 45 46 46 45 46 47 46
87 84 82 84 70 58 82 89 84 66 62 56 56 60 56 49 70 82 85 85 38 32 32 35 40 44 49 51 52 50 49 50 51
89 86 84 80 80 74 59 84 91 88 81 69 62 55 60 57 77 77 83 68 43 35 33 35 36 38 41 43 46 49 50 52 54
76 88 84 82 79 76 79 67 83 92 94 82 70 64 67 64 76 79 78 80 51 43 35 38 38 38 37 39 42 45 47 49 51
98 99 96 89 82 78 76 81 81 91 98 94 84 77 75 79 64 80 79 71 47 48 82 54 46 42 40 39 39 41 42 44 48
76 70 97 99 93 84 81 80 82 89 94 96 90 80 84 93 84 79 78 69 45 47 52 76 66 51 49 45 43 43 43 44 45
39 65 73 74 91 90 84 82 83 84 87 93 99 91 95 87 78 74 79 72 49 46 50 52 81 78 61 57 54 49 45 43 42
40 41 58 84 93 92 99 96 100 98 95 94 99 98 95 84 76 74 78 74 52 45 44 49 50 71 82 75 68 57 53 51 47
54 48 43 54 78 97 90 94 93 95 99 98 92 96 95 85 78 75 75 75 54 49 45 43 48 50 57 78 77 75 75 73 66
70 63 55 50 55 79 86 91 93 93 96 100 90 95 97 89 85 77 73 74 61 52 52 45 44 48 51 58 73 65 73 75 73
74 78 72 63 54 54 72 87 99 97 96 97 98 90 98 95 92 85 78 75 71 57 57 50 48 48 52 54 60 61 63 64 68
77 79 81 73 65 61 62 76 87 99 99 94 89 88 88 91 89 91 85 82 80 72 53 49 50 51 54 60 64 64 63 65 70
92 83 85 82 75 68 64 66 81 82 95 98 96 97 94 89 91 94 98 95 92 83 84 74 71 63 51 50 55 60 70 80 80
97 92 87 86 85 78 70 66 73 74 80 90 98 99 93 99 96 92 96 99 92 95 99 98 90 89 87 84 80 81 82 81 81
98 95 92 87 84 82 74 69 73 79 72 97 88 91 79 99 98 98 98 100 98 83 99 100 98 94 82 70 69 66 58 51 59
97 95 82 76 76 80 76 73 73 72 74 98 96 93 86 96 90 93 100 97 100 91 88 80 75 78 82 91 90 77 54 63 64
86 76 81 80 82 74 77 75 72 85 76 92 92 94 93 92 98 100 93 92 92 94 97 96 90 85 91 94 81 65 60 63 72
86 93 71 63 80 72 69 69 79 74 80 91 99 97 84 89 94 96 90 83 84 87 95 83 80 80 74 75 77 62 58 64 72
98 93 78 77 78 79 78 72 75 76 87 96 99 94 80 70 67 82 75 68 76 82 73 66 62 68 67 60 77 74 89 83 92
Wind_Speed
14 14 13 14 13 14 12 11 11 12 12 12 10 9 7 6 5 6 7 7 11 6 6 5 5 5 4 3 2 3 2 2 1
17 16 16 15 16 16 16 15 14 14 14 15 14 13 11 9 6 9 8 7 8 7 7 7 6 6 4 3 2 2 2 2 1
20 19 19 19 18 19 18 18 17 16 16 16 16 15 13 11 9 11 11 13 10 9 8 7 6 6 5 4 3 3 2 1 0
21 22 22 21 21 21 21 20 20 20 18 17 17 17 15 14 9 12 12 15 12 12 10 9 8 7 6 5 4 4 3 3 2
25 24 25 25 24 23 23 23 22 22 21 18 17 17 18 18 15 16 14 18 15 13 12 10 9 8 7 7 6 5 5 4 4
20 21 23 26 26 25 25 24 24 23 23 22 19 19 21 20 19 17 18 21 17 15 14 12 10 9 9 8 7 7 6 6 6
23 26 24 25 27 27 27 27 26 25 27 25 23 24 23 19 18 19 21 23 20 18 17 16 14 11 10 10 10 9 9 9 8
18 20 25 30 27 28 30 30 30 30 29 28 23 23 23 22 21 22 25 26 23 21 20 18 18 17 13 11 11 11 11 11 10
19 20 20 21 28 26 24 26 27 27 30 29 27 25 21 23 23 23 27 29 26 24 23 21 20 20 19 17 14 12 11 12 12
20 21 22 22 23 27 30 27 30 31 30 30 31 29 27 25 25 25 26 29 27 27 24 23 22 20 20 20 18 18 16 14 13
23 24 25 25 24 25 30 31 32 32 31 32 32 35 32 30 27 27 25 28 28 29 27 25 24 24 23 21 20 19 19 18 17
20 23 25 23 25 25 28 31 30 32 35 32 34 36 33 35 32 28 27 26 27 28 29 27 26 24 23 23 22 21 20 20 21
20 21 23 23 24 25 26 28 30 31 32 36 38 36 36 37 36 31 30 29 24 26 30 29 27 26 25 24 22 22 22 22 23
19 19 20 21 23 24 25 26 26 30 30 35 35 36 40 38 37 37 32 32 32 28 24 25 24 23 24 24 25 24 23 24 25
18 18 19 20 23 24 24 25 26 30 26 29 24 33 37 36 39 39 38 38 35 27 24 20 20 21 20 20 21 23 24 26 27
19 18 17 18 21 22 22 24 24 28 25 20 24 23 31 35 49 37 43 38 34 38 20 13 13 9 11 16 19 22 23 25 27
19 19 18 18 19 18 22 22 24 23 19 17 17 15 10 21 31 23 21 27 14 12 13 8 5 9 9 9 14 16 18 21 24
18 20 17 17 15 16 19 18 22 19 16 16 15 5 5 6 5 8 6 8 1 6 4 3 3 4 5 10 17 19 21 23 24
19 19 13 13 15 16 19 17 18 14 14 13 12 15 9 4 2 4 2 6 7 4 1 4 4 7 11 16 20 23 23 25 26
17 17 11 10 9 10 10 12 11 11 12 12 12 14 12 7 8 4 1 7 9 11 12 11 13 16 21 24 23 25 23 22 21
Wind_Direction
268 268 268 257 256 239 242 238 241 233 233 239 239 240 236 229 207 213 234 155 239 207 183 178 178 183 190 185 189 144 136 121 90
270 265 262 260 253 249 247 242 240 239 243 247 249 244 239 233 215 224 225 219 225 220 198 190 186 184 185 176 178 162 158 144 121
268 265 260 258 255 251 252 246 245 245 246 248 248 245 239 234 208 226 225 226 224 220 208 204 204 199 194 187 187 187 186 183 175
271 264 260 257 255 254 250 251 250 248 248 250 249 244 237 232 232 229 226 236 227 226 212 209 211 209 208 205 205 208 213 219 223
272 269 260 255 254 253 252 248 250 248 247 247 249 245 240 232 208 238 226 236 235 235 217 216 221 224 222 220 220 222 228 234 243
268 265 266 261 253 251 250 251 248 247 245 243 243 241 238 240 231 234 235 236 232 229 226 225 226 228 232 233 234 236 239 244 248
269 260 258 256 258 253 250 249 248 246 242 242 240 234 236 234 238 237 239 241 232 230 226 227 234 233 232 234 237 240 242 244 247
274 275 269 260 261 258 256 250 245 242 238 235 238 243 232 226 230 234 242 244 233 230 229 226 229 237 240 241 245 247 249 252 253
273 270 270 271 260 253 248 245 243 240 242 235 230 236 230 230 226 234 240 244 234 232 231 229 228 230 239 245 250 255 258 261 262
273 267 262 264 267 260 249 247 247 248 238 238 235 229 229 228 231 229 241 247 236 233 233 233 233 233 237 242 247 253 257 264 263
275 270 265 259 255 268 259 252 249 248 249 236 238 235 229 228 231 234 238 247 241 233 232 233 234 236 239 242 245 251 254 259 264
277 272 269 266 258 255 263 259 251 249 244 242 244 236 237 234 230 233 231 246 247 238 236 235 236 237 240 244 244 248 251 255 262
295 280 274 269 265 263 264 265 259 248 252 247 246 243 240 236 234 232 231 232 246 246 239 240 242 243 245 247 250 249 253 256 259
305 289 278 274 267 265 260 265 265 258 253 252 251 249 244 243 237 229 229 227 228 240 243 239 238 241 243 246 250 253 256 262 267
315 306 292 279 273 262 258 256 260 263 265 263 262 251 257 248 245 243 239 230 235 233 225 234 234 240 242 246 251 256 260 265 267
318 308 300 289 276 270 259 256 256 260 261 274 262 268 262 253 248 247 251 242 233 248 228 223 225 244 264 258 256 258 262 266 266
317 308 299 290 285 268 265 254 257 261 255 256 254 265 272 234 254 275 248 210 219 232 240 251 238 231 239 272 274 275 265 264 262
318 315 302 298 303 279 274 264 256 252 251 250 242 228 220 200 24 35 219 170 127 181 161 180 236 293 281 257 263 269 276 275 271
329 333 314 309 296 285 273 264 260 247 247 260 239 231 215 157 68 79 99 138 193 291 356 265 316 278 274 277 277 281 280 280 278
343 336 335 315 322 291 283 266 260 255 245 228 202 173 148 193 215 203 263 255 248 252 280 287 300 296 296 296 284 284 287 285 280